• In Italy
  • List of Countries
  • For 7 days
  • Water Temperature
  • Satellite Maps
  • Weather Map
  • Weather Widgets
  • user-avatar
    Login

    Hourly Weather Shillong

    Today, 19 January, Friday

    Time Temperature Precipitation Wind Pressure Humidity
    00:00 +8°C° 0 mm 0 mps 632 mmHg 89%
    01:00 +8°C° 0 mm 0 mps 632 mmHg 89%
    02:00 +8°C° 0 mm 0 mps 632 mmHg 89%
    03:00 +7°C° 0 mm 0 mps 632 mmHg 89%
    04:00 +7°C° 0 mm 0 mps 632 mmHg 90%
    05:00 +7°C° 0 mm 0 mps 632 mmHg 90%
    06:00 +7°C° 0 mm 0 mps 632 mmHg 92%
    07:00 +10°C° 0 mm 1 mps 633 mmHg 86%
    08:00 +11°C° 0 mm 1 mps 634 mmHg 81%
    09:00 +13°C° 0 mm 1 mps 635 mmHg 76%
    10:00 +14°C° 0 mm 1 mps 635 mmHg 71%
    11:00 +15°C° 0 mm 1 mps 635 mmHg 67%
    12:00 +16°C° 0 mm 1 mps 635 mmHg 62%
    13:00 +16°C° 0 mm 1 mps 635 mmHg 62%
    14:00 +16°C° 0 mm 1 mps 634 mmHg 62%
    15:00 +16°C° 0 mm 1 mps 634 mmHg 61%
    16:00 +15°C° 0 mm 1 mps 633 mmHg 68%
    17:00 +12°C° 0 mm 0 mps 633 mmHg 75%
    18:00 +10°C° 0 mm 0 mps 632 mmHg 82%
    19:00 +10°C° 0 mm 0 mps 632 mmHg 83%
    20:00 +9°C° 0 mm 0 mps 633 mmHg 84%
    21:00 +10°C° 0 mm 1 mps 633 mmHg 85%
    22:00 +10°C° 0 mm 1 mps 633 mmHg 85%
    23:00 +8°C° 0 mm 0 mps 632 mmHg 85%

    Tomorrow, 20 January, Saturday

    Time Temperature Precipitation Wind Pressure Humidity
    00:00 +8°C° 0 mm 0 mps 632 mmHg 86%
    01:00 +8°C° 0 mm 0 mps 632 mmHg 86%
    02:00 +7°C° 0 mm 0 mps 631 mmHg 86%
    03:00 +7°C° 0 mm 0 mps 631 mmHg 87%
    04:00 +7°C° 0 mm 0 mps 631 mmHg 87%
    05:00 +7°C° 0 mm 0 mps 631 mmHg 87%
    06:00 +6°C° 0 mm 0 mps 631 mmHg 87%
    07:00 +8°C° 0 mm 0 mps 632 mmHg 79%
    08:00 +10°C° 0 mm 0 mps 633 mmHg 70%
    09:00 +13°C° 0 mm 1 mps 634 mmHg 62%
    10:00 +15°C° 0 mm 1 mps 634 mmHg 57%
    11:00 +16°C° 0 mm 1 mps 634 mmHg 52%
    12:00 +18°C° 0 mm 1 mps 635 mmHg 47%
    13:00 +18°C° 0 mm 1 mps 634 mmHg 48%
    14:00 +18°C° 0 mm 1 mps 634 mmHg 49%
    15:00 +18°C° 0 mm 1 mps 633 mmHg 49%
    16:00 +15°C° 0 mm 1 mps 632 mmHg 58%
    17:00 +13°C° 0 mm 1 mps 632 mmHg 67%
    18:00 +10°C° 0 mm 0 mps 631 mmHg 76%
    19:00 +10°C° 0 mm 0 mps 631 mmHg 78%
    20:00 +10°C° 0 mm 1 mps 632 mmHg 80%
    21:00 +10°C° 0 mm 1 mps 632 mmHg 82%
    22:00 +9°C° 0 mm 1 mps 632 mmHg 84%
    23:00 +9°C° 0 mm 1 mps 632 mmHg 85%

    Day after tomorrow, 21 January, Sunday

    Time Temperature Precipitation Wind Pressure Humidity
    00:00 +9°C° 0 mm 1 mps 632 mmHg 87%
    01:00 +9°C° 0 mm 1 mps 631 mmHg 88%
    02:00 +8°C° 0 mm 1 mps 631 mmHg 89%
    03:00 +8°C° 0 mm 1 mps 631 mmHg 90%
    04:00 +8°C° 0 mm 1 mps 631 mmHg 90%
    05:00 +7°C° 0 mm 0 mps 631 mmHg 91%
    06:00 +7°C° 0 mm 0 mps 631 mmHg 91%
    07:00 +9°C° 0 mm 1 mps 632 mmHg 84%
    08:00 +11°C° 0 mm 1 mps 633 mmHg 76%
    09:00 +13°C° 0 mm 1 mps 634 mmHg 68%
    10:00 +15°C° 0 mm 1 mps 635 mmHg 61%
    11:00 +16°C° 0 mm 1 mps 635 mmHg 55%
    12:00 +19°C° 0 mm 1 mps 635 mmHg 48%
    13:00 +19°C° 0 mm 1 mps 634 mmHg 48%
    14:00 +19°C° 0 mm 1 mps 633 mmHg 49%
    15:00 +18°C° 0 mm 1 mps 633 mmHg 49%
    16:00 +15°C° 0 mm 1 mps 632 mmHg 57%
    17:00 +13°C° 0 mm 1 mps 632 mmHg 64%
    18:00 +10°C° 0 mm 0 mps 631 mmHg 72%
    19:00 +10°C° 0 mm 0 mps 631 mmHg 75%
    20:00 +10°C° 0 mm 1 mps 631 mmHg 78%
    21:00 +10°C° 0 mm 1 mps 632 mmHg 80%
    22:00 +10°C° 0 mm 1 mps 631 mmHg 81%
    23:00 +9°C° 0 mm 1 mps 631 mmHg 82%

    22 January, Monday

    Time Temperature Precipitation Wind Pressure Humidity
    00:00 +9°C° 0 mm 1 mps 631 mmHg 83%
    01:00 +8°C° 0 mm 0 mps 631 mmHg 83%
    02:00 +7°C° 0 mm 0 mps 630 mmHg 84%
    03:00 +7°C° 0 mm 0 mps 630 mmHg 84%
    04:00 +7°C° 0 mm 0 mps 630 mmHg 84%
    05:00 +7°C° 0 mm 0 mps 630 mmHg 84%
    06:00 +6°C° 0 mm 0 mps 630 mmHg 83%
    07:00 +8°C° 0 mm 0 mps 631 mmHg 74%
    08:00 +11°C° 0 mm 0 mps 633 mmHg 65%
    09:00 +14°C° 0 mm 1 mps 634 mmHg 56%
    10:00 +15°C° 0 mm 1 mps 634 mmHg 50%
    11:00 +18°C° 0 mm 1 mps 634 mmHg 45%
    12:00 +19°C° 0 mm 1 mps 634 mmHg 39%
    13:00 +19°C° 0 mm 1 mps 634 mmHg 39%
    14:00 +19°C° 0 mm 1 mps 633 mmHg 40%
    15:00 +19°C° 0 mm 1 mps 632 mmHg 40%
    16:00 +16°C° 0 mm 1 mps 632 mmHg 49%
    17:00 +13°C° 0 mm 1 mps 631 mmHg 58%
    18:00 +10°C° 0 mm 0 mps 630 mmHg 66%
    19:00 +10°C° 0 mm 0 mps 631 mmHg 69%
    20:00 +10°C° 0 mm 1 mps 631 mmHg 72%
    21:00 +10°C° 0 mm 1 mps 631 mmHg 75%
    22:00 +10°C° 0 mm 1 mps 631 mmHg 76%
    23:00 +8°C° 0 mm 0 mps 631 mmHg 77%

    23 January, Tuesday

    Time Temperature Precipitation Wind Pressure Humidity
    00:00 +8°C° 0 mm 0 mps 631 mmHg 79%
    01:00 +8°C° 0 mm 0 mps 630 mmHg 79%
    02:00 +7°C° 0 mm 0 mps 630 mmHg 79%
    03:00 +7°C° 0 mm 0 mps 630 mmHg 79%
    04:00 +7°C° 0 mm 0 mps 630 mmHg 78%
    05:00 +7°C° 0 mm 0 mps 630 mmHg 78%
    06:00 +6°C° 0 mm 0 mps 630 mmHg 78%
    07:00 +9°C° 0 mm 0 mps 631 mmHg 70%
    08:00 +11°C° 0 mm 0 mps 632 mmHg 62%
    09:00 +13°C° 0 mm 0 mps 634 mmHg 54%
    10:00 +15°C° 0 mm 1 mps 634 mmHg 50%
    11:00 +18°C° 0 mm 1 mps 634 mmHg 45%
    12:00 +19°C° 0 mm 1 mps 634 mmHg 41%
    13:00 +19°C° 0 mm 1 mps 633 mmHg 42%
    14:00 +19°C° 0 mm 1 mps 632 mmHg 43%
    15:00 +19°C° 0 mm 1 mps 632 mmHg 44%
    16:00 +16°C° 0 mm 1 mps 631 mmHg 53%
    17:00 +14°C° 0 mm 1 mps 631 mmHg 61%
    18:00 +10°C° 0 mm 0 mps 630 mmHg 70%
    19:00 +10°C° 0 mm 0 mps 630 mmHg 72%
    20:00 +10°C° 0 mm 0 mps 630 mmHg 74%
    21:00 +10°C° 0 mm 1 mps 631 mmHg 76%
    22:00 +10°C° 0 mm 1 mps 630 mmHg 77%
    23:00 +8°C° 0 mm 0 mps 630 mmHg 79%

    24 January, Wednesday

    Time Temperature Precipitation Wind Pressure Humidity
    00:00 +8°C° 0 mm 0 mps 630 mmHg 81%
    01:00 +8°C° 0 mm 0 mps 630 mmHg 81%
    02:00 +7°C° 0 mm 0 mps 629 mmHg 82%
    03:00 +7°C° 0 mm 0 mps 629 mmHg 83%
    04:00 +7°C° 0 mm 0 mps 629 mmHg 83%
    05:00 +7°C° 0 mm 0 mps 629 mmHg 83%
    06:00 +6°C° 0 mm 0 mps 629 mmHg 83%
    07:00 +8°C° 0 mm 0 mps 630 mmHg 75%
    08:00 +11°C° 0 mm 0 mps 631 mmHg 67%
    09:00 +13°C° 0 mm 0 mps 632 mmHg 59%
    10:00 +15°C° 0 mm 1 mps 633 mmHg 54%
    11:00 +16°C° 0 mm 1 mps 633 mmHg 49%
    12:00 +19°C° 0 mm 1 mps 633 mmHg 44%
    13:00 +18°C° 0 mm 1 mps 632 mmHg 46%
    14:00 +18°C° 0 mm 1 mps 631 mmHg 47%
    15:00 +17°C° 0 mm 2 mps 631 mmHg 48%
    16:00 +15°C° 0 mm 1 mps 630 mmHg 55%
    17:00 +13°C° 0 mm 1 mps 629 mmHg 61%
    18:00 +11°C° 0 mm 1 mps 629 mmHg 67%
    19:00 +11°C° 0 mm 1 mps 629 mmHg 69%
    20:00 +10°C° 0 mm 1 mps 629 mmHg 70%
    21:00 +10°C° 0 mm 1 mps 629 mmHg 72%
    22:00 +9°C° 0 mm 1 mps 629 mmHg 71%
    23:00 +9°C° 0 mm 1 mps 629 mmHg 70%
    Show more